Time,TemperatureF,DewpointF,PressureIn,WindDirection,WindDirectionDegrees,WindSpeedMPH,WindSpeedGustMPH,Humidity,HourlyPrecipIn,Conditions,Clouds,dailyrainin,SoftwareType,DateUTC
2013-08-07 00:01:00,69.3,55.8,29.94,North,-999,0.0,0.0,62,0.00,,,-99.99,FreeWX 2.04,2013-08-07 04:01:00,
2013-08-07 00:11:00,69.3,55.8,29.94,North,-999,0.0,0.0,62,0.00,,,-99.99,FreeWX 2.04,2013-08-07 04:11:00,
2013-08-07 00:21:00,69.1,55.9,29.94,North,-999,0.0,0.0,63,0.00,,,-99.99,FreeWX 2.04,2013-08-07 04:21:00,
2013-08-07 00:31:00,69.1,55.9,29.94,North,-999,0.0,0.0,63,0.00,,,-99.99,FreeWX 2.04,2013-08-07 04:31:00,
2013-08-07 00:41:00,68.9,55.8,29.94,North,-999,0.0,0.0,63,0.00,,,-99.99,FreeWX 2.04,2013-08-07 04:41:00,
2013-08-07 00:51:00,68.7,55.6,29.94,North,-999,0.0,0.0,63,0.00,,,-99.99,FreeWX 2.04,2013-08-07 04:51:00,
2013-08-07 01:01:00,68.7,56.1,29.94,North,-999,0.0,0.0,64,0.00,,,-99.99,FreeWX 2.04,2013-08-07 05:01:00,
2013-08-07 01:11:00,68.5,55.9,29.94,North,-999,0.0,0.0,64,0.00,,,-99.99,FreeWX 2.04,2013-08-07 05:11:00,
2013-08-07 01:21:00,68.5,56.3,29.97,North,-999,0.0,0.0,65,0.00,,,-99.99,FreeWX 2.04,2013-08-07 05:21:00,
2013-08-07 01:31:00,68.5,56.3,29.97,North,-999,0.0,0.0,65,0.00,,,-99.99,FreeWX 2.04,2013-08-07 05:31:00,
2013-08-07 01:41:00,68.4,56.1,29.94,North,-999,0.0,0.0,65,0.00,,,-99.99,FreeWX 2.04,2013-08-07 05:41:00,
2013-08-07 01:51:00,68.4,56.1,29.97,North,-999,0.0,0.0,65,0.00,,,-99.99,FreeWX 2.04,2013-08-07 05:51:00,
2013-08-07 02:01:00,68.5,56.3,29.97,North,-999,0.0,0.0,65,0.00,,,-99.99,FreeWX 2.04,2013-08-07 06:01:00,
2013-08-07 02:11:00,68.5,56.3,29.97,North,-999,0.0,0.0,65,0.00,,,-99.99,FreeWX 2.04,2013-08-07 06:11:00,
2013-08-07 02:21:00,68.2,55.9,29.97,North,-999,0.0,0.0,65,0.00,,,-99.99,FreeWX 2.04,2013-08-07 06:21:00,
2013-08-07 02:31:00,68.0,55.8,29.97,North,-999,0.0,0.0,65,0.00,,,-99.99,FreeWX 2.04,2013-08-07 06:31:00,
2013-08-07 02:41:00,68.0,56.1,29.97,North,-999,0.0,0.0,66,0.00,,,-99.99,FreeWX 2.04,2013-08-07 06:41:00,
2013-08-07 02:51:00,67.8,56.1,29.94,North,-999,0.0,0.0,66,0.00,,,-99.99,FreeWX 2.04,2013-08-07 06:51:00,
2013-08-07 03:01:00,67.6,55.9,29.94,North,-999,0.0,0.0,66,0.00,,,-99.99,FreeWX 2.04,2013-08-07 07:01:00,
2013-08-07 03:11:00,67.8,56.5,29.94,North,-999,0.0,0.0,67,0.00,,,-99.99,FreeWX 2.04,2013-08-07 07:11:00,
2013-08-07 03:21:00,67.6,55.9,29.94,North,-999,0.0,0.0,66,0.00,,,-99.99,FreeWX 2.04,2013-08-07 07:21:00,
2013-08-07 03:31:00,67.3,55.6,29.94,North,-999,0.0,0.0,66,0.00,,,-99.99,FreeWX 2.04,2013-08-07 07:31:00,
2013-08-07 03:41:00,67.3,55.6,29.97,North,-999,0.0,0.0,66,0.00,,,-99.99,FreeWX 2.04,2013-08-07 07:41:00,
2013-08-07 03:51:00,67.3,55.9,29.97,North,-999,0.0,0.0,67,0.00,,,-99.99,FreeWX 2.04,2013-08-07 07:51:00,
2013-08-07 04:01:00,67.1,55.8,29.97,North,-999,0.0,0.0,67,0.00,,,-99.99,FreeWX 2.04,2013-08-07 08:01:00,
2013-08-07 04:11:00,67.3,55.9,29.94,North,-999,0.0,0.0,67,0.00,,,-99.99,FreeWX 2.04,2013-08-07 08:11:00,
2013-08-07 04:21:00,67.3,55.9,29.94,North,-999,0.0,0.0,67,0.00,,,-99.99,FreeWX 2.04,2013-08-07 08:21:00,
2013-08-07 04:31:00,67.3,55.9,29.94,North,-999,0.0,0.0,67,0.00,,,-99.99,FreeWX 2.04,2013-08-07 08:31:00,
2013-08-07 04:41:00,66.9,55.6,29.94,North,-999,0.0,0.0,67,0.00,,,-99.99,FreeWX 2.04,2013-08-07 08:41:00,
2013-08-07 04:51:00,67.1,56.1,29.97,North,-999,0.0,0.0,68,0.00,,,-99.99,FreeWX 2.04,2013-08-07 08:51:00,
2013-08-07 05:01:00,66.9,55.9,29.97,North,-999,0.0,0.0,68,0.00,,,-99.99,FreeWX 2.04,2013-08-07 09:01:00,
2013-08-07 05:11:00,66.9,55.9,29.94,North,-999,0.0,0.0,68,0.00,,,-99.99,FreeWX 2.04,2013-08-07 09:11:00,
2013-08-07 05:21:00,66.9,55.9,29.94,North,-999,0.0,0.0,68,0.00,,,-99.99,FreeWX 2.04,2013-08-07 09:21:00,
2013-08-07 05:31:00,66.9,56.5,29.94,North,-999,0.0,0.0,69,0.00,,,-99.99,FreeWX 2.04,2013-08-07 09:31:00,
2013-08-07 05:41:00,66.9,56.5,29.94,North,-999,0.0,0.0,69,0.00,,,-99.99,FreeWX 2.04,2013-08-07 09:41:00,
2013-08-07 05:51:00,66.9,56.5,29.94,North,-999,0.0,0.0,69,0.00,,,-99.99,FreeWX 2.04,2013-08-07 09:51:00,
2013-08-07 06:01:00,67.1,56.7,29.94,North,-999,0.0,0.0,69,0.00,,,-99.99,FreeWX 2.04,2013-08-07 10:01:00,
2013-08-07 06:11:00,67.1,56.7,29.94,North,-999,0.0,0.0,69,0.00,,,-99.99,FreeWX 2.04,2013-08-07 10:11:00,
2013-08-07 06:21:00,67.1,56.7,29.94,North,-999,0.0,0.0,69,0.00,,,-99.99,FreeWX 2.04,2013-08-07 10:21:00,
2013-08-07 06:31:00,67.1,57.0,29.94,North,-999,0.0,0.0,70,0.00,,,-99.99,FreeWX 2.04,2013-08-07 10:31:00,
2013-08-07 06:41:00,66.7,56.3,29.94,North,-999,0.0,0.0,69,0.00,,,-99.99,FreeWX 2.04,2013-08-07 10:41:00,
2013-08-07 06:51:00,66.9,56.8,29.97,North,-999,0.0,0.0,70,0.00,,,-99.99,FreeWX 2.04,2013-08-07 10:51:00,
2013-08-07 07:01:00,67.3,57.2,29.97,North,-999,0.0,0.0,70,0.00,,,-99.99,FreeWX 2.04,2013-08-07 11:01:00,
2013-08-07 07:11:00,67.3,57.2,29.97,North,-999,0.0,0.0,70,0.00,,,-99.99,FreeWX 2.04,2013-08-07 11:11:00,
2013-08-07 07:21:00,67.5,57.4,29.97,North,-999,0.0,0.0,70,0.00,,,-99.99,FreeWX 2.04,2013-08-07 11:21:00,
2013-08-07 07:31:00,67.5,57.4,29.97,North,-999,0.0,0.0,70,0.00,,,-99.99,FreeWX 2.04,2013-08-07 11:31:00,
2013-08-07 07:41:00,67.6,57.6,29.97,North,-999,0.0,0.0,70,0.00,,,-99.99,FreeWX 2.04,2013-08-07 11:41:00,
2013-08-07 07:51:00,68.0,58.3,29.97,North,-999,0.0,0.0,71,0.00,,,-99.99,FreeWX 2.04,2013-08-07 11:51:00,
2013-08-07 08:01:00,68.5,58.8,29.97,North,-999,0.0,0.0,71,0.00,,,-99.99,FreeWX 2.04,2013-08-07 12:01:00,
2013-08-07 08:11:00,68.9,59.2,29.97,North,-999,0.0,0.0,71,0.00,,,-99.99,FreeWX 2.04,2013-08-07 12:11:00,
2013-08-07 08:21:00,69.4,59.5,29.97,North,-999,0.0,0.0,71,0.00,,,-99.99,FreeWX 2.04,2013-08-07 12:21:00,
2013-08-07 08:31:00,70.2,60.6,29.97,North,-999,0.0,0.0,72,0.00,,,-99.99,FreeWX 2.04,2013-08-07 12:31:00,
2013-08-07 08:41:00,71.4,61.9,29.97,North,-999,0.0,0.0,72,0.00,,,-99.99,FreeWX 2.04,2013-08-07 12:41:00,
2013-08-07 08:51:00,72.1,62.6,29.97,North,-999,0.0,0.0,72,0.00,,,-99.99,FreeWX 2.04,2013-08-07 12:51:00,
2013-08-07 09:01:00,72.7,62.8,29.97,North,-999,0.0,4.5,71,0.00,,,-99.99,FreeWX 2.04,2013-08-07 13:01:00,
2013-08-07 09:11:00,73.2,62.8,29.97,North,-999,0.0,5.8,70,0.00,,,-99.99,FreeWX 2.04,2013-08-07 13:11:00,
2013-08-07 09:21:00,73.4,63.0,29.97,North,-999,0.0,0.0,70,0.00,,,-99.99,FreeWX 2.04,2013-08-07 13:21:00,
2013-08-07 09:31:00,73.8,63.0,29.97,North,-999,0.0,4.0,69,0.00,,,-99.99,FreeWX 2.04,2013-08-07 13:31:00,
2013-08-07 09:41:00,74.1,63.3,29.97,North,-999,0.0,2.7,69,0.00,,,-99.99,FreeWX 2.04,2013-08-07 13:41:00,
2013-08-07 09:51:00,74.3,63.0,29.97,North,-999,0.0,5.8,68,0.00,,,-99.99,FreeWX 2.04,2013-08-07 13:51:00,
2013-08-07 10:01:00,74.5,63.1,29.97,North,-999,0.0,0.0,68,0.00,,,-99.99,FreeWX 2.04,2013-08-07 14:01:00,
2013-08-07 10:11:00,75.0,63.7,29.97,NNW,336,1.0,5.4,68,0.00,,,-99.99,FreeWX 2.04,2013-08-07 14:11:00,
2013-08-07 10:21:00,75.7,64.0,29.97,North,-999,0.0,4.9,67,0.00,,,-99.99,FreeWX 2.04,2013-08-07 14:21:00,
2013-08-07 10:31:00,76.3,63.7,29.97,North,357,1.0,6.3,65,0.00,,,-99.99,FreeWX 2.04,2013-08-07 14:31:00,
2013-08-07 10:41:00,76.3,61.9,29.97,NNE,23,1.0,5.4,61,0.00,,,-99.99,FreeWX 2.04,2013-08-07 14:41:00,
2013-08-07 10:51:00,76.1,61.2,29.97,ENE,57,1.0,6.3,60,0.00,,,-99.99,FreeWX 2.04,2013-08-07 14:51:00,
2013-08-07 11:01:00,76.5,62.1,29.97,NE,34,1.0,5.8,61,0.00,,,-99.99,FreeWX 2.04,2013-08-07 15:01:00,
2013-08-07 11:11:00,77.0,62.4,30.00,North,-999,0.0,0.0,61,0.00,,,-99.99,FreeWX 2.04,2013-08-07 15:11:00,
2013-08-07 11:21:00,77.2,61.2,29.97,North,-999,0.0,4.5,58,0.00,,,-99.99,FreeWX 2.04,2013-08-07 15:21:00,
2013-08-07 11:31:00,77.5,61.5,29.97,North,-999,0.0,4.9,58,0.00,,,-99.99,FreeWX 2.04,2013-08-07 15:31:00,
2013-08-07 11:41:00,78.1,60.1,30.00,North,-999,0.0,3.6,54,0.00,,,-99.99,FreeWX 2.04,2013-08-07 15:41:00,
2013-08-07 11:51:00,80.1,59.2,29.97,NNW,346,1.0,6.3,49,0.00,,,-99.99,FreeWX 2.04,2013-08-07 15:51:00,
2013-08-07 12:01:00,82.0,56.7,29.97,North,358,2.0,6.7,42,0.00,,,-99.99,FreeWX 2.04,2013-08-07 16:01:00,
2013-08-07 12:11:00,83.3,55.8,29.97,North,8,1.0,6.9,39,0.00,,,-99.99,FreeWX 2.04,2013-08-07 16:11:00,
2013-08-07 12:21:00,83.8,54.0,29.97,NNW,341,2.0,7.8,36,0.00,,,-99.99,FreeWX 2.04,2013-08-07 16:21:00,
2013-08-07 12:31:00,81.7,52.9,29.97,North,-999,0.0,6.3,37,0.00,,,-99.99,FreeWX 2.04,2013-08-07 16:31:00,
2013-08-07 12:41:00,81.9,55.8,29.97,NNW,348,1.0,6.9,41,0.00,,,-99.99,FreeWX 2.04,2013-08-07 16:41:00,
2013-08-07 12:51:00,83.7,54.7,29.97,North,-999,0.0,4.9,37,0.00,,,-99.99,FreeWX 2.04,2013-08-07 16:51:00,
2013-08-07 13:01:00,84.7,52.3,29.97,North,359,2.0,6.9,33,0.00,,,-99.99,FreeWX 2.04,2013-08-07 17:01:00,
2013-08-07 13:11:00,84.9,54.1,29.97,North,354,2.0,6.7,35,0.00,,,-99.99,FreeWX 2.04,2013-08-07 17:11:00,
2013-08-07 13:21:00,85.1,52.0,29.97,North,358,2.0,6.9,32,0.00,,,-99.99,FreeWX 2.04,2013-08-07 17:21:00,
2013-08-07 13:31:00,85.1,52.0,29.97,North,-999,0.0,5.8,32,0.00,,,-99.99,FreeWX 2.04,2013-08-07 17:31:00,
2013-08-07 13:41:00,85.1,52.0,29.97,North,-999,0.0,6.3,32,0.00,,,-99.99,FreeWX 2.04,2013-08-07 17:41:00,
2013-08-07 13:51:00,85.3,51.3,29.97,NNE,13,1.0,6.9,31,0.00,,,-99.99,FreeWX 2.04,2013-08-07 17:51:00,
2013-08-07 14:01:00,85.6,49.6,29.97,North,5,2.0,6.7,29,0.00,,,-99.99,FreeWX 2.04,2013-08-07 18:01:00,
2013-08-07 14:11:00,86.4,51.3,29.97,North,-999,0.0,4.9,30,0.00,,,-99.99,FreeWX 2.04,2013-08-07 18:11:00,
2013-08-07 14:21:00,87.6,46.4,29.97,NNE,32,2.0,8.3,24,0.00,,,-99.99,FreeWX 2.04,2013-08-07 18:21:00,
2013-08-07 14:31:00,86.9,46.8,29.97,NE,44,2.0,8.3,25,0.00,,,-99.99,FreeWX 2.04,2013-08-07 18:31:00,
2013-08-07 14:41:00,87.1,44.8,29.94,NE,36,2.0,6.7,23,0.00,,,-99.99,FreeWX 2.04,2013-08-07 18:41:00,
2013-08-07 14:52:00,86.5,45.5,29.94,NNE,27,2.0,6.7,24,0.00,,,-99.99,FreeWX 2.04,2013-08-07 18:52:00,
2013-08-07 15:02:00,85.5,48.6,29.94,North,350,2.0,9.6,28,0.00,,,-99.99,FreeWX 2.04,2013-08-07 19:02:00,
2013-08-07 15:12:00,84.9,49.1,29.94,NNW,340,2.0,6.7,29,0.00,,,-99.99,FreeWX 2.04,2013-08-07 19:12:00,
2013-08-07 15:22:00,84.4,48.6,29.94,NNW,346,3.0,8.3,29,0.00,,,-99.99,FreeWX 2.04,2013-08-07 19:22:00,
2013-08-07 15:32:00,84.4,49.5,29.94,North,354,3.0,8.3,30,0.00,,,-99.99,FreeWX 2.04,2013-08-07 19:32:00,
2013-08-07 15:42:00,84.0,49.3,29.94,North,351,3.0,7.4,30,0.00,,,-99.99,FreeWX 2.04,2013-08-07 19:42:00,
2013-08-07 15:52:00,83.8,49.1,29.94,NNE,28,2.0,5.8,30,0.00,,,-99.99,FreeWX 2.04,2013-08-07 19:52:00,
2013-08-07 16:02:00,83.5,50.5,29.94,NNE,17,2.0,6.9,32,0.00,,,-99.99,FreeWX 2.04,2013-08-07 20:02:00,
2013-08-07 16:12:00,83.3,50.4,29.94,North,351,2.0,6.9,32,0.00,,,-99.99,FreeWX 2.04,2013-08-07 20:12:00,
2013-08-07 16:22:00,83.3,51.1,29.94,North,349,2.0,8.3,33,0.00,,,-99.99,FreeWX 2.04,2013-08-07 20:22:00,
2013-08-07 16:32:00,83.7,52.3,29.94,NNW,346,1.0,6.7,34,0.00,,,-99.99,FreeWX 2.04,2013-08-07 20:32:00,
2013-08-07 16:42:00,84.0,51.8,29.91,NNW,343,2.0,5.4,33,0.00,,,-99.99,FreeWX 2.04,2013-08-07 20:42:00,
2013-08-07 16:52:00,84.2,52.0,29.91,North,355,2.0,5.4,33,0.00,,,-99.99,FreeWX 2.04,2013-08-07 20:52:00,
2013-08-07 17:02:00,83.7,51.4,29.91,North,351,2.0,7.8,33,0.00,,,-99.99,FreeWX 2.04,2013-08-07 21:02:00,
2013-08-07 17:12:00,83.1,51.1,29.91,North,351,2.0,6.7,33,0.00,,,-99.99,FreeWX 2.04,2013-08-07 21:12:00,
2013-08-07 17:22:00,83.3,52.0,29.91,NNE,17,1.0,9.2,34,0.00,,,-99.99,FreeWX 2.04,2013-08-07 21:22:00,
2013-08-07 17:32:00,83.7,51.4,29.91,NNW,341,2.0,8.3,33,0.00,,,-99.99,FreeWX 2.04,2013-08-07 21:32:00,
2013-08-07 17:42:00,83.5,50.5,29.91,North,9,1.0,6.3,32,0.00,,,-99.99,FreeWX 2.04,2013-08-07 21:42:00,
2013-08-07 17:52:00,82.9,51.6,29.91,NE,45,1.0,4.5,34,0.00,,,-99.99,FreeWX 2.04,2013-08-07 21:52:00,
2013-08-07 18:02:00,82.8,51.4,29.91,NNW,344,1.0,6.3,34,0.00,,,-99.99,FreeWX 2.04,2013-08-07 22:02:00,
2013-08-07 18:12:00,82.9,53.2,29.91,North,-999,0.0,4.0,36,0.00,,,-99.99,FreeWX 2.04,2013-08-07 22:12:00,
2013-08-07 18:22:00,82.8,52.3,29.91,NNW,346,2.0,7.8,35,0.00,,,-99.99,FreeWX 2.04,2013-08-07 22:22:00,
2013-08-07 18:32:00,82.4,52.7,29.91,North,-999,0.0,4.9,36,0.00,,,-99.99,FreeWX 2.04,2013-08-07 22:32:00,
2013-08-07 18:42:00,82.2,53.2,29.91,North,-999,0.0,5.8,37,0.00,,,-99.99,FreeWX 2.04,2013-08-07 22:42:00,
2013-08-07 18:52:00,82.0,54.0,29.91,North,-999,0.0,4.9,38,0.00,,,-99.99,FreeWX 2.04,2013-08-07 22:52:00,
2013-08-07 19:02:00,81.5,54.1,29.91,North,350,1.0,4.9,39,0.00,,,-99.99,FreeWX 2.04,2013-08-07 23:02:00,
2013-08-07 19:12:00,81.1,55.2,29.91,North,-999,0.0,4.0,41,0.00,,,-99.99,FreeWX 2.04,2013-08-07 23:12:00,
2013-08-07 19:22:00,81.0,55.0,29.91,NNW,345,1.0,5.4,41,0.00,,,-99.99,FreeWX 2.04,2013-08-07 23:22:00,
2013-08-07 19:32:00,80.6,55.9,29.91,North,-999,0.0,4.0,43,0.00,,,-99.99,FreeWX 2.04,2013-08-07 23:32:00,
2013-08-07 19:42:00,80.2,55.8,29.91,North,-999,0.0,4.0,43,0.00,,,-99.99,FreeWX 2.04,2013-08-07 23:42:00,
2013-08-07 22:29:00,74.7,60.3,29.94,North,-999,0.0,5.8,61,0.00,,,-99.99,FreeWX 2.04,2013-08-08 02:29:00,
2013-08-07 22:39:00,74.7,60.3,29.94,North,-999,0.0,0.0,61,0.00,,,-99.99,FreeWX 2.04,2013-08-08 02:39:00,
2013-08-07 22:49:00,74.5,61.0,29.94,North,-999,0.0,0.0,63,0.00,,,-99.99,FreeWX 2.04,2013-08-08 02:49:00,
2013-08-07 22:59:00,74.3,60.8,29.94,North,-999,0.0,0.0,63,0.00,,,-99.99,FreeWX 2.04,2013-08-08 02:59:00,
2013-08-07 23:09:00,74.3,60.8,29.94,North,-999,0.0,0.0,63,0.00,,,-99.99,FreeWX 2.04,2013-08-08 03:09:00,
2013-08-07 23:19:00,74.1,60.6,29.97,North,-999,0.0,0.0,63,0.00,,,-99.99,FreeWX 2.04,2013-08-08 03:19:00,
2013-08-07 23:29:00,74.1,61.5,29.97,North,-999,0.0,0.0,65,0.00,,,-99.99,FreeWX 2.04,2013-08-08 03:29:00,
2013-08-07 23:39:00,74.1,61.5,29.94,North,-999,0.0,0.0,65,0.00,,,-99.99,FreeWX 2.04,2013-08-08 03:39:00,
2013-08-07 23:49:00,74.3,62.2,29.94,North,-999,0.0,0.0,66,0.00,,,-99.99,FreeWX 2.04,2013-08-08 03:49:00,
2013-08-07 23:59:00,74.3,62.6,29.94,North,-999,0.0,0.0,67,0.00,,,-99.99,FreeWX 2.04,2013-08-08 03:59:00,